Time,TemperatureF,DewpointF,PressureIn,WindDirection,WindDirectionDegrees,WindSpeedMPH,WindSpeedGustMPH,Humidity,HourlyPrecipIn,Conditions,Clouds,dailyrainin,SoftwareType,DateUTC
2013-05-29 00:02:00,71.0,56.0,29.92,SW,223,0.0,3.0,60,0.00,,,0.00,,2013-05-29 05:02:00,
2013-05-29 00:12:00,71.0,56.0,29.92,SW,223,0.0,3.0,60,0.00,,,0.00,,2013-05-29 05:12:00,
2013-05-29 00:22:00,71.0,57.0,29.92,North,0,0.0,0.0,62,0.00,,,0.00,,2013-05-29 05:22:00,
2013-05-29 00:32:00,70.0,57.0,29.93,North,0,0.0,0.0,64,0.00,,,0.00,,2013-05-29 05:32:00,
2013-05-29 00:42:00,70.0,57.0,29.93,North,0,0.0,0.0,64,0.00,,,0.00,,2013-05-29 05:42:00,
2013-05-29 00:52:00,69.0,57.0,29.94,North,0,0.0,0.0,66,0.00,,,0.00,,2013-05-29 05:52:00,
2013-05-29 01:01:00,68.0,57.0,29.94,North,0,0.0,0.0,67,0.00,,,0.00,,2013-05-29 06:01:00,
2013-05-29 01:11:00,68.0,57.0,29.94,North,0,0.0,0.0,67,0.00,,,0.00,,2013-05-29 06:11:00,
2013-05-29 01:21:00,68.0,57.0,29.94,SW,223,0.0,1.0,68,0.00,,,0.00,,2013-05-29 06:21:00,
2013-05-29 01:31:00,67.0,56.0,29.94,North,0,0.0,0.0,68,0.00,,,0.00,,2013-05-29 06:31:00,
2013-05-29 01:42:00,67.0,56.0,29.94,North,0,0.0,0.0,68,0.00,,,0.00,,2013-05-29 06:42:00,
2013-05-29 01:52:00,67.0,56.0,29.93,SSW,200,0.0,3.0,69,0.00,,,0.00,,2013-05-29 06:52:00,
2013-05-29 02:01:00,67.0,56.0,29.93,SSW,200,0.0,1.0,69,0.00,,,0.00,,2013-05-29 07:01:00,
2013-05-29 02:11:00,67.0,56.0,29.93,SSW,200,0.0,1.0,69,0.00,,,0.00,,2013-05-29 07:11:00,
2013-05-29 02:21:00,67.0,56.0,29.93,SSE,149,0.0,2.0,69,0.00,,,0.00,,2013-05-29 07:21:00,
2013-05-29 02:34:00,67.0,57.0,29.93,North,0,0.0,0.0,70,0.00,,,0.00,,2013-05-29 07:34:00,
2013-05-29 02:42:00,67.0,57.0,29.93,North,0,0.0,0.0,70,0.00,,,0.00,,2013-05-29 07:42:00,
2013-05-29 02:52:00,66.0,56.0,29.93,SSE,149,0.0,1.0,70,0.00,,,0.00,,2013-05-29 07:52:00,
2013-05-29 03:02:00,66.0,57.0,29.92,North,0,0.0,0.0,72,0.00,,,0.00,,2013-05-29 08:02:00,
2013-05-29 03:11:00,66.0,57.0,29.92,North,0,0.0,0.0,72,0.00,,,0.00,,2013-05-29 08:11:00,
2013-05-29 03:21:00,66.0,57.0,29.92,SSE,149,0.0,1.0,72,0.00,,,0.00,,2013-05-29 08:21:00,
2013-05-29 03:32:00,65.0,56.0,29.93,North,0,0.0,0.0,73,0.00,,,0.00,,2013-05-29 08:32:00,
2013-05-29 03:42:00,65.0,56.0,29.93,North,0,0.0,0.0,73,0.00,,,0.00,,2013-05-29 08:42:00,
2013-05-29 03:51:00,65.0,57.0,29.93,North,0,0.0,0.0,75,0.00,,,0.00,,2013-05-29 08:51:00,
2013-05-29 04:01:00,64.0,57.0,29.93,North,0,0.0,0.0,77,0.00,,,0.00,,2013-05-29 09:01:00,
2013-05-29 04:11:00,64.0,57.0,29.93,North,0,0.0,0.0,77,0.00,,,0.00,,2013-05-29 09:11:00,
2013-05-29 04:21:00,64.0,57.0,29.93,North,0,0.0,0.0,78,0.00,,,0.00,,2013-05-29 09:21:00,
2013-05-29 04:33:00,63.0,57.0,29.93,North,0,0.0,0.0,80,0.00,,,0.00,,2013-05-29 09:33:00,
2013-05-29 04:42:00,63.0,57.0,29.93,North,0,0.0,0.0,80,0.00,,,0.00,,2013-05-29 09:42:00,
2013-05-29 04:52:00,64.0,58.0,29.94,North,0,0.0,0.0,80,0.00,,,0.00,,2013-05-29 09:52:00,
2013-05-29 05:03:00,64.0,58.0,29.94,North,0,0.0,0.0,80,0.00,,,0.00,,2013-05-29 10:03:00,
2013-05-29 05:12:00,64.0,58.0,29.94,North,0,0.0,0.0,80,0.00,,,0.00,,2013-05-29 10:12:00,
2013-05-29 05:22:00,63.0,57.0,29.96,North,0,0.0,0.0,82,0.00,,,0.00,,2013-05-29 10:22:00,
2013-05-29 05:32:00,63.0,58.0,29.96,North,0,0.0,0.0,84,0.00,,,0.00,,2013-05-29 10:32:00,
2013-05-29 05:42:00,63.0,58.0,29.96,North,0,0.0,0.0,84,0.00,,,0.00,,2013-05-29 10:42:00,
2013-05-29 05:53:00,63.0,58.0,29.97,North,0,0.0,0.0,85,0.00,,,0.00,,2013-05-29 10:53:00,
2013-05-29 06:02:00,63.0,58.0,29.98,North,0,0.0,0.0,85,0.00,,,0.00,,2013-05-29 11:02:00,
2013-05-29 06:12:00,63.0,58.0,29.98,North,0,0.0,0.0,85,0.00,,,0.00,,2013-05-29 11:12:00,
2013-05-29 06:22:00,63.0,59.0,29.98,North,0,0.0,0.0,86,0.00,,,0.00,,2013-05-29 11:22:00,
2013-05-29 06:32:00,63.0,59.0,29.99,North,0,0.0,0.0,88,0.00,,,0.00,,2013-05-29 11:32:00,
2013-05-29 06:42:00,63.0,59.0,29.99,North,0,0.0,0.0,88,0.00,,,0.00,,2013-05-29 11:42:00,
2013-05-29 06:52:00,63.0,60.0,29.99,North,0,0.0,0.0,89,0.00,,,0.00,,2013-05-29 11:52:00,
2013-05-29 07:01:00,65.0,62.0,30.00,ESE,115,0.0,2.0,89,0.00,,,0.00,,2013-05-29 12:01:00,
2013-05-29 07:11:00,65.0,62.0,30.00,ESE,115,0.0,2.0,89,0.00,,,0.00,,2013-05-29 12:11:00,
2013-05-29 07:21:00,67.0,62.0,30.00,ESE,108,0.0,3.0,85,0.00,,,0.00,,2013-05-29 12:21:00,
2013-05-29 07:32:00,69.0,63.0,30.01,North,0,0.0,0.0,81,0.00,,,0.00,,2013-05-29 12:32:00,
2013-05-29 07:42:00,69.0,63.0,30.01,North,0,0.0,0.0,81,0.00,,,0.00,,2013-05-29 12:42:00,
2013-05-29 07:51:00,70.0,63.0,30.01,ESE,103,0.0,3.0,79,0.00,,,0.00,,2013-05-29 12:51:00,
2013-05-29 08:02:00,72.0,64.0,30.01,East,92,0.0,5.0,75,0.00,,,0.00,,2013-05-29 13:02:00,
2013-05-29 08:11:00,72.0,64.0,30.01,East,92,0.0,5.0,75,0.00,,,0.00,,2013-05-29 13:11:00,
2013-05-29 08:21:00,72.0,64.0,30.01,SW,221,0.0,7.0,75,0.00,,,0.00,,2013-05-29 13:21:00,
2013-05-29 08:32:00,73.0,64.0,30.01,SW,219,1.0,6.0,73,0.00,,,0.00,,2013-05-29 13:32:00,
2013-05-29 08:42:00,73.0,64.0,30.01,SW,219,1.0,6.0,73,0.00,,,0.00,,2013-05-29 13:42:00,
2013-05-29 08:53:00,73.0,63.0,30.01,SW,223,2.0,9.0,72,0.00,,,0.00,,2013-05-29 13:53:00,
2013-05-29 09:02:00,74.0,64.0,30.01,SSW,211,2.0,11.0,71,0.00,,,0.00,,2013-05-29 14:02:00,
2013-05-29 09:11:00,74.0,64.0,30.01,SSW,211,2.0,11.0,71,0.00,,,0.00,,2013-05-29 14:11:00,
2013-05-29 09:21:00,75.0,64.0,30.01,SW,224,3.0,14.0,69,0.00,,,0.00,,2013-05-29 14:21:00,
2013-05-29 09:32:00,75.0,64.0,30.01,SW,224,3.0,14.0,69,0.00,,,0.00,,2013-05-29 14:32:00,
2013-05-29 09:41:00,75.0,64.0,30.01,SW,224,3.0,14.0,69,0.00,,,0.00,,2013-05-29 14:41:00,
2013-05-29 09:52:00,77.0,64.0,30.01,SSW,198,2.0,10.0,64,0.00,,,0.00,,2013-05-29 14:52:00,
2013-05-29 10:01:00,78.0,65.0,30.01,SW,222,1.0,8.0,64,0.00,,,0.00,,2013-05-29 15:01:00,
2013-05-29 10:11:00,78.0,64.0,30.00,South,191,3.0,11.0,62,0.00,,,0.00,,2013-05-29 15:11:00,
2013-05-29 10:21:00,78.0,64.0,30.00,South,191,3.0,11.0,62,0.00,,,0.00,,2013-05-29 15:21:00,
2013-05-29 10:33:00,78.0,64.0,30.00,South,191,3.0,11.0,62,0.00,,,0.00,,2013-05-29 15:33:00,
2013-05-29 10:42:00,78.0,64.0,30.00,South,191,3.0,11.0,62,0.00,,,0.00,,2013-05-29 15:42:00,
2013-05-29 10:53:00,80.0,66.0,29.99,SSW,211,2.0,10.0,62,0.00,,,0.00,,2013-05-29 15:53:00,
2013-05-29 11:03:00,80.0,64.0,29.99,WSW,254,3.0,13.0,58,0.00,,,0.00,,2013-05-29 16:03:00,
2013-05-29 11:12:00,80.0,64.0,29.99,WSW,254,3.0,13.0,58,0.00,,,0.00,,2013-05-29 16:12:00,
2013-05-29 11:22:00,81.0,64.0,29.99,SSW,208,2.0,10.0,57,0.00,,,0.00,,2013-05-29 16:22:00,
2013-05-29 11:32:00,82.0,65.0,29.99,SSW,195,1.0,11.0,57,0.00,,,0.00,,2013-05-29 16:32:00,
2013-05-29 11:42:00,82.0,65.0,29.99,SSW,195,1.0,11.0,57,0.00,,,0.00,,2013-05-29 16:42:00,
2013-05-29 11:52:00,82.0,65.0,29.99,SW,218,3.0,17.0,57,0.00,,,0.00,,2013-05-29 16:52:00,
2013-05-29 12:02:00,82.0,65.0,29.98,SW,228,4.0,13.0,56,0.00,,,0.00,,2013-05-29 17:02:00,
2013-05-29 12:12:00,82.0,65.0,29.98,SW,228,4.0,13.0,56,0.00,,,0.00,,2013-05-29 17:12:00,
2013-05-29 12:22:00,82.0,65.0,29.98,SSW,207,2.0,10.0,57,0.00,,,0.00,,2013-05-29 17:22:00,
2013-05-29 12:32:00,83.0,65.0,29.98,SSW,199,3.0,13.0,54,0.00,,,0.00,,2013-05-29 17:32:00,
2013-05-29 12:42:00,83.0,65.0,29.98,SSW,199,3.0,13.0,54,0.00,,,0.00,,2013-05-29 17:42:00,
2013-05-29 12:52:00,83.0,65.0,29.98,SSW,213,4.0,11.0,55,0.00,,,0.00,,2013-05-29 17:52:00,
2013-05-29 13:01:00,84.0,67.0,29.98,SSE,155,2.0,11.0,56,0.00,,,0.00,,2013-05-29 18:01:00,
2013-05-29 13:13:00,83.0,65.0,29.98,SSE,151,3.0,14.0,54,0.00,,,0.00,,2013-05-29 18:13:00,
2013-05-29 13:22:00,83.0,65.0,29.98,SSE,151,3.0,14.0,54,0.00,,,0.00,,2013-05-29 18:22:00,
2013-05-29 13:32:00,84.0,66.0,29.97,SSE,168,1.0,8.0,54,0.00,,,0.00,,2013-05-29 18:32:00,
2013-05-29 13:42:00,84.0,66.0,29.97,SSE,168,1.0,8.0,54,0.00,,,0.00,,2013-05-29 18:42:00,
2013-05-29 13:51:00,83.0,65.0,29.97,SE,144,3.0,13.0,54,0.00,,,0.00,,2013-05-29 18:51:00,
2013-05-29 14:02:00,83.0,66.0,29.96,South,170,3.0,16.0,56,0.00,,,0.00,,2013-05-29 19:02:00,
2013-05-29 14:11:00,83.0,65.0,29.96,SSW,199,3.0,14.0,54,0.00,,,0.00,,2013-05-29 19:11:00,
2013-05-29 14:21:00,83.0,65.0,29.96,SSW,199,3.0,14.0,54,0.00,,,0.00,,2013-05-29 19:21:00,
2013-05-29 14:32:00,84.0,64.0,29.95,South,177,2.0,14.0,52,0.00,,,0.00,,2013-05-29 19:32:00,
2013-05-29 14:44:00,84.0,65.0,29.95,South,169,2.0,13.0,53,0.00,,,0.00,,2013-05-29 19:44:00,
2013-05-29 14:52:00,84.0,65.0,29.95,South,169,2.0,13.0,53,0.00,,,0.00,,2013-05-29 19:52:00,
2013-05-29 15:02:00,84.0,64.0,29.95,South,172,2.0,15.0,52,0.00,,,0.00,,2013-05-29 20:02:00,
2013-05-29 15:11:00,85.0,65.0,29.94,SW,217,4.0,17.0,52,0.00,,,0.00,,2013-05-29 20:11:00,
2013-05-29 15:22:00,85.0,65.0,29.94,SW,217,4.0,17.0,52,0.00,,,0.00,,2013-05-29 20:22:00,
2013-05-29 15:32:00,85.0,65.0,29.94,SE,134,1.0,10.0,52,0.00,,,0.00,,2013-05-29 20:32:00,
2013-05-29 15:42:00,85.0,65.0,29.94,SE,134,1.0,10.0,52,0.00,,,0.00,,2013-05-29 20:42:00,
2013-05-29 15:52:00,84.0,65.0,29.94,SE,130,2.0,10.0,53,0.00,,,0.00,,2013-05-29 20:52:00,
2013-05-29 16:02:00,85.0,66.0,29.94,SE,132,1.0,7.0,53,0.00,,,0.00,,2013-05-29 21:02:00,
2013-05-29 16:12:00,85.0,66.0,29.94,SE,132,1.0,7.0,53,0.00,,,0.00,,2013-05-29 21:12:00,
2013-05-29 16:22:00,85.0,61.0,29.93,South,177,3.0,11.0,45,0.00,,,0.00,,2013-05-29 21:22:00,
2013-05-29 16:33:00,85.0,61.0,29.93,South,186,2.0,12.0,45,0.00,,,0.00,,2013-05-29 21:33:00,
2013-05-29 16:43:00,85.0,61.0,29.93,South,186,2.0,12.0,45,0.00,,,0.00,,2013-05-29 21:43:00,
2013-05-29 16:53:00,85.0,62.0,29.92,SSW,197,1.0,10.0,46,0.00,,,0.00,,2013-05-29 21:53:00,
2013-05-29 17:03:00,85.0,61.0,29.92,SSE,162,1.0,10.0,44,0.00,,,0.00,,2013-05-29 22:03:00,
2013-05-29 17:12:00,85.0,61.0,29.92,SSE,162,1.0,10.0,44,0.00,,,0.00,,2013-05-29 22:12:00,
2013-05-29 17:23:00,85.0,61.0,29.92,SSW,201,1.0,8.0,44,0.00,,,0.00,,2013-05-29 22:23:00,
2013-05-29 17:33:00,85.0,62.0,29.92,ESE,115,1.0,7.0,47,0.00,,,0.00,,2013-05-29 22:33:00,
2013-05-29 17:42:00,86.0,65.0,29.92,South,175,1.0,8.0,49,0.00,,,0.00,,2013-05-29 22:42:00,
2013-05-29 17:53:00,86.0,65.0,29.92,South,175,1.0,8.0,49,0.00,,,0.00,,2013-05-29 22:53:00,
2013-05-29 18:02:00,85.0,65.0,29.91,SSW,192,2.0,10.0,52,0.00,,,0.00,,2013-05-29 23:02:00,
2013-05-29 18:12:00,85.0,65.0,29.91,SSW,192,2.0,10.0,52,0.00,,,0.00,,2013-05-29 23:12:00,
2013-05-29 18:21:00,84.0,64.0,29.91,SE,136,1.0,11.0,52,0.00,,,0.00,,2013-05-29 23:21:00,
2013-05-29 18:33:00,84.0,66.0,29.91,SE,138,1.0,8.0,55,0.00,,,0.00,,2013-05-29 23:33:00,
2013-05-29 18:42:00,84.0,68.0,29.91,South,174,0.0,5.0,58,0.00,,,0.00,,2013-05-29 23:42:00,
2013-05-29 18:52:00,84.0,68.0,29.91,South,174,0.0,5.0,58,0.00,,,0.00,,2013-05-29 23:52:00,
2013-05-29 19:01:00,82.0,66.0,29.91,SE,125,0.0,4.0,59,0.00,,,0.00,,2013-05-30 00:01:00,
2013-05-29 19:11:00,82.0,66.0,29.91,SE,125,0.0,4.0,59,0.00,,,0.00,,2013-05-30 00:11:00,
2013-05-29 19:21:00,82.0,67.0,29.91,SE,130,0.0,2.0,61,0.00,,,0.00,,2013-05-30 00:21:00,
2013-05-29 19:31:00,81.0,66.0,29.91,ESE,115,0.0,6.0,61,0.00,,,0.00,,2013-05-30 00:31:00,
2013-05-29 19:42:00,81.0,66.0,29.91,ESE,115,0.0,6.0,61,0.00,,,0.00,,2013-05-30 00:42:00,
2013-05-29 19:52:00,80.0,66.0,29.90,ESE,104,0.0,3.0,62,0.00,,,0.00,,2013-05-30 00:52:00,
2013-05-29 20:01:00,80.0,66.0,29.90,ESE,121,0.0,3.0,63,0.00,,,0.00,,2013-05-30 01:01:00,
2013-05-29 20:11:00,80.0,66.0,29.90,ESE,121,0.0,3.0,63,0.00,,,0.00,,2013-05-30 01:11:00,
2013-05-29 20:21:00,79.0,66.0,29.89,SE,129,0.0,3.0,65,0.00,,,0.00,,2013-05-30 01:21:00,
2013-05-29 20:32:00,78.0,66.0,29.89,SE,127,0.0,1.0,66,0.00,,,0.00,,2013-05-30 01:32:00,
2013-05-29 20:41:00,78.0,66.0,29.89,SE,127,0.0,1.0,66,0.00,,,0.00,,2013-05-30 01:41:00,
2013-05-29 20:52:00,78.0,67.0,29.89,ESE,108,0.0,2.0,68,0.00,,,0.00,,2013-05-30 01:52:00,
2013-05-29 21:01:00,77.0,66.0,29.89,ESE,107,0.0,2.0,69,0.00,,,0.00,,2013-05-30 02:01:00,
2013-05-29 21:11:00,77.0,66.0,29.89,ESE,107,0.0,2.0,69,0.00,,,0.00,,2013-05-30 02:11:00,
2013-05-29 21:21:00,77.0,66.0,29.89,ESE,107,0.0,1.0,69,0.00,,,0.00,,2013-05-30 02:21:00,
2013-05-29 21:32:00,77.0,66.0,29.88,ESE,120,0.0,1.0,69,0.00,,,0.00,,2013-05-30 02:32:00,
2013-05-29 21:42:00,77.0,66.0,29.88,ESE,120,0.0,1.0,69,0.00,,,0.00,,2013-05-30 02:42:00,
2013-05-29 21:52:00,77.0,66.0,29.88,ESE,120,0.0,1.0,69,0.00,,,0.00,,2013-05-30 02:52:00,
2013-05-29 22:02:00,77.0,66.0,29.88,East,80,0.0,3.0,69,0.00,,,0.00,,2013-05-30 03:02:00,
2013-05-29 22:11:00,77.0,66.0,29.88,East,93,0.0,4.0,69,0.00,,,0.00,,2013-05-30 03:11:00,
2013-05-29 22:21:00,77.0,66.0,29.88,East,93,0.0,4.0,69,0.00,,,0.00,,2013-05-30 03:21:00,
2013-05-29 22:33:00,76.0,65.0,29.89,SE,126,0.0,5.0,69,0.00,,,0.00,,2013-05-30 03:33:00,
2013-05-29 22:43:00,76.0,65.0,29.89,SE,126,0.0,5.0,69,0.00,,,0.00,,2013-05-30 03:43:00,
2013-05-29 22:53:00,76.0,65.0,29.89,SE,133,0.0,6.0,69,0.00,,,0.00,,2013-05-30 03:53:00,
2013-05-29 23:02:00,76.0,65.0,29.89,SE,127,0.0,8.0,68,0.00,,,0.00,,2013-05-30 04:02:00,
2013-05-29 23:12:00,76.0,65.0,29.89,SE,127,0.0,8.0,68,0.00,,,0.00,,2013-05-30 04:12:00,
2013-05-29 23:23:00,76.0,65.0,29.89,SE,133,0.0,6.0,68,0.00,,,0.00,,2013-05-30 04:23:00,
2013-05-29 23:33:00,76.0,65.0,29.89,ESE,112,0.0,11.0,68,0.00,,,0.00,,2013-05-30 04:33:00,
2013-05-29 23:42:00,76.0,65.0,29.89,ESE,112,0.0,11.0,68,0.00,,,0.00,,2013-05-30 04:42:00,
2013-05-29 23:53:00,77.0,65.0,29.90,ESE,123,1.0,12.0,66,0.00,,,0.00,,2013-05-30 04:53:00,